Regional Weather Roundup
Issued by NWS

Home | Current Version | Previous Version | Text Only | Print | Product List | Glossary Off
Versions: 1 2 3 4 5 6 7 8 9 10 11 12 13 14 15 16 17 18 19 20 21 22 23 24 25 26 27 28 29 30 31 32 33 34 35 36 37 38 39 40 41 42 43 44 45 46 47 48 49 50

000
ASUS43 KFSD 172310
RWRSD

WEATHER ROUNDUP FOR SOUTH DAKOTA
NATIONAL WEATHER SERVICE SIOUX FALLS SD
600 PM CDT THU AUG 17 2017

NOTE: "FAIR" INDICATES FEW OR NO CLOUDS BELOW 12,000 FEET WITH NO
SIGNIFICANT WEATHER AND/OR OBSTRUCTIONS TO VISIBILITY.


SDZ001>005-009-010-012>017-180000-
NORTHWEST AND NORTH CENTRAL SOUTH DAKOTA

CITY           SKY/WX    TMP DP  RH WIND       PRES   REMARKS
BUFFALO          N/A     82  43  25 W10       29.87F
FAITH            N/A     86  40  19 NW23      29.88R
MOBRIDGE       MOSUNNY   80  60  50 E10       29.83S
$$

SDZ012>016-024>037-041>051-057-063-072>074-180000-
SOUTHWEST AND SOUTH CENTRAL SOUTH DAKOTA

CITY           SKY/WX    TMP DP  RH WIND       PRES   REMARKS
RAPID CTY ARPT MOSUNNY   78  46  32 N30G36    29.94R
PIERRE         SUNNY     81  57  43 SE18      29.78F
CUSTER         CLOUDY    67  43  41 W12G25    30.14R
ELLSWORTH AFB  PTSUNNY   74  50  42 N10G22    29.98
PHILIP         LGT RAIN  86  43  22 W31G45    29.84R
PINE RIDGE     SUNNY     86  46  24 SW7G20    29.88F
SPEARFISH      LGT RAIN  70  46  43 W14G29    30.06R
WINNER         FAIR      86  60  41 S12       29.84F
$$

SDZ004>011-016>023-039-040-180000-
NORTHEAST SOUTH DAKOTA

CITY           SKY/WX    TMP DP  RH WIND       PRES   REMARKS
ABERDEEN       SUNNY     79  58  48 E6        29.87S
WATERTOWN      SUNNY     76  57  51 N6        29.88S
BROOKINGS      SUNNY     76  58  53 N5        29.90S
SISSETON         N/A     78  61  55 N8        29.85S
$$

SDZ017-020-022-023-036>040-048>070-180000-
SOUTHEAST SOUTH DAKOTA

CITY           SKY/WX    TMP DP  RH WIND       PRES   REMARKS
SIOUX FALLS    SUNNY     80  61  52 NW8       29.90R
HURON          SUNNY     80  59  48 E6        29.87S
CHAMBERLAIN    SUNNY     81  63  54 E9        29.85F
MITCHELL       SUNNY     81  60  48 SE5       29.88F
YANKTON        SUNNY     81  59  47 W5        29.90F
$$

ABBREVIATIONS USED IN REMARKS
   TC - TEMPERATURE IN CELSIUS
  WCI - WIND CHILL INDEX
   HX - HEAT INDEX
  VSB - VISIBILITY





USA.gov is the U.S. government's official web portal to all federal, state and local government web resources and services.